Stations météo

Publicité
Pau, France (7610): Température de l'air & dewpoint: 14.04.2019 14:00:00 - 20.04.2019 14:00:00 (CEST)Pau, France (7610): Température de l'air 5cm: 14.04.2019 14:00:00 - 20.04.2019 14:00:00 (CEST)Pau, France (7610): Température de l'air -20cm & Température de l'air -100cm: 14.04.2019 14:00:00 - 20.04.2019 14:00:00 (CEST)Pau, France (7610): Vitesse du vent & gusts: 14.04.2019 14:00:00 - 20.04.2019 14:00:00 (CEST)Pau, France (7610): Direction du vent: 14.04.2019 14:00:00 - 20.04.2019 14:00:00 (CEST)Pau, France (7610): reduced air pressure: 14.04.2019 14:00:00 - 20.04.2019 14:00:00 (CEST)Pau, France (7610): visibility: 14.04.2019 14:00:00 - 20.04.2019 14:00:00 (CEST)Pau, France (7610): Ensoleillement: 14.04.2019 14:00:00 - 20.04.2019 14:00:00 (CEST)Pau, France (7610): Quantités de précipitations: 14.04.2019 14:00:00 - 20.04.2019 14:00:00 (CEST)
Date & Time tt [°C] td [°C] tt 5cm [°C] tt -20cm [°C] tt -100cm [°C] ff [km/h] ff [knt] fx [km/h] fx [knt] dd ppp [hPa] vv [km] sd [min] rr [mm]
20.04.2019 14:00:00 18,7 9,7 28,1 14,5 12,9 8 5 19 11 ENE 1021,1 19 60 0,0
20.04.2019 13:00:00 17,6 10,9 27,1 14,5 12,9 7 4 26 14 NW 1021,6 28 60 0,0
20.04.2019 12:00:00 16,2 7,9 24,7 14,5 12,9 6 4 16 8 NNW 1022,1 19 60 0,0
20.04.2019 11:00:00 14,7 10,7 21,6 14,6 12,9 8 4 16 9 WNW 1022,3 20 60 0,0
20.04.2019 10:00:00 13,6 9,6 15,0 14,7 12,9 4 2 8 5 W 1022,7 20 60 0,0
20.04.2019 09:00:00 11,3 8,3 6,8 14,7 12,9 5 3 10 5 E 1023,2 14 60 0,0
20.04.2019 08:00:00 8,1 6,7 2,7 14,8 12,9 7 4 9 5 SE 1023,6 14 17 0,0
20.04.2019 07:00:00 7,0 6,3 2,4 14,9 12,9 3 2 4 2 E 1023,0 19 0 0,0
20.04.2019 06:00:00 7,6 6,1 3,0 15,0 12,9 4 2 8 5 ENE 1022,9 22 0 0,0
20.04.2019 05:00:00 8,8 6,4 4,1 15,0 12,8 4 2 9 5 NE 1023,0 27 0 0,0
20.04.2019 04:00:00 9,8 6,5 4,8 15,0 12,9 4 2 7 4 NNE 1023,2 35 0 0,0
20.04.2019 03:00:00 10,6 6,9 5,5 15,1 12,9 3 2 11 6 W 1023,2 41 0 0,0
20.04.2019 02:00:00 12,5 6,7 7,7 15,1 12,8 4 2 10 6 ENE 1023,3 45 0 0,0
20.04.2019 01:00:00 14,4 7,0 11,3 15,1 12,9 8 5 19 11 ESE 1023,4 42 0 0,0
20.04.2019 00:00:00 14,7 6,8 10,7 15,0 12,8 9 5 19 10 E 1023,7 45 0 0,0
19.04.2019 23:00:00 15,6 6,6 10,3 15,0 12,8 8 4 21 11 ENE 1023,4 51 0 0,0
19.04.2019 22:00:00 16,8 6,3 11,7 14,9 12,8 7 4 19 11 ENE 1022,6 51 0 0,0
19.04.2019 21:00:00 18,4 7,2 14,0 14,8 12,8 13 7 26 14 ENE 1021,7 53 23 0,0
19.04.2019 20:00:00 20,4 7,4 18,0 14,7 12,8 14 7 29 16 NE 1020,8 48 55 0,0
19.04.2019 19:00:00 22,3 11,4 26,0 14,5 12,8 9 5 18 10 E 1020,3 19 53 0,0
19.04.2019 18:00:00 21,8 12,4 24,2 14,4 12,8 9 5 26 14 E 1020,3 37 40 0,0
19.04.2019 17:00:00 21,3 13,2 27,5 14,3 12,8 13 7 25 13 NE 1020,3 31 49 0,0
19.04.2019 16:00:00 20,9 13,3 26,3 14,2 12,8 9 5 22 12 NE 1020,6 21 26 0,0
19.04.2019 15:00:00 20,4 12,9 27,9 14,1 12,8 5 3 16 9 NE 1020,6 29 41 0,0
19.04.2019 14:00:00 19,7 12,7 28,0 14,1 12,8 7 4 18 10 WNW 1020,6 19 49 0,0
19.04.2019 13:00:00 18,8 13,0 25,4 14,1 12,8 9 5 18 10 N 1020,7 20 34 0,0
19.04.2019 12:00:00 16,4 12,7 19,4 14,1 12,8 12 6 20 11 NE 1020,7 20 3 0,0
19.04.2019 11:00:00 14,8 11,9 17,0 14,1 12,8 6 4 11 6 NNE 1020,3 33 0 0,0
19.04.2019 10:00:00 13,3 11,7 13,0 14,1 12,8 6 4 11 6 ENE 1019,7 19 0 0,0
19.04.2019 09:00:00 12,1 11,2 10,6 14,2 12,8 6 4 10 5 SE 1019,2 15 0 0,0
19.04.2019 08:00:00 11,4 10,6 9,6 14,2 12,8 7 4 9 5 SE 1018,9 13 0 0,2
19.04.2019 07:00:00 11,2 10,4 8,8 14,2 12,7 5 3 9 5 S 1018,2 12 0 0,0
19.04.2019 06:00:00 11,0 10,4 9,0 14,3 12,8 4 2 8 5 NE 1017,6 9 0 0,0
19.04.2019 05:00:00 11,6 10,8 9,1 14,4 12,8 6 3 10 6 S 1017,7 15 0 0,0
19.04.2019 04:00:00 11,5 10,6 9,1 14,4 12,7 6 4 13 7 W 1017,2 16 0 0,0
19.04.2019 03:00:00 12,1 11,2 10,5 14,4 12,8 7 4 18 10 WSW 1017,4 14 0 0,0
19.04.2019 02:00:00 11,7 11,2 8,2 14,4 12,7 9 5 16 8 W 1017,0 12 0 0,0
19.04.2019 01:00:00 12,1 11,5 9,4 14,4 12,7 4 2 8 5 WSW 1016,6 12 0 0,0
19.04.2019 00:00:00 12,1 11,5 9,3 14,4 12,7 4 2 6 3 NNE 1016,0 9 0 0,0
18.04.2019 23:00:00 12,7 11,9 9,5 14,4 12,7 4 2 6 3 NW 1015,5 13 0 0,0
18.04.2019 22:00:00 13,2 11,9 9,5 14,4 12,7 3 2 8 4 NW 1015,1 19 0 0,0
18.04.2019 21:00:00 14,3 12,2 10,5 14,3 12,7 3 2 12 6 N 1014,9 30 0 0,0
18.04.2019 20:00:00 15,9 12,1 14,7 14,3 12,7 10 5 16 8 NNE 1014,3 36 0 0,0
18.04.2019 19:00:00 17,3 12,0 20,2 14,2 12,7 8 4 13 7 N 1014,5 39 48 0,0
18.04.2019 18:00:00 17,1 11,6 19,8 14,2 12,7 4 2 11 6 NNE 1014,4 37 0 0,0
18.04.2019 17:00:00 17,1 12,0 20,2 14,2 12,7 2 1 11 6 SSW 1014,8 36 0 0,0
18.04.2019 16:00:00 16,5 12,1 16,2 14,2 12,7 7 4 18 10 SSE 1014,7 26 0 0,0
18.04.2019 15:00:00 15,1 13,0 14,1 14,2 12,7 11 6 26 14 S 1014,9 15 0 0,2
18.04.2019 14:00:00 15,0 11,6 15,6 14,2 12,7 6 4 17 9 ENE 1015,5 31 0 0,0
18.04.2019 13:00:00 15,3 11,9 16,5 14,2 12,7 13 7 24 13 NNW 1015,3 18 0 0,0
18.04.2019 12:00:00 15,7 11,9 18,5 14,2 12,7 3 2 11 6 NW 1015,0 23 0 0,0
18.04.2019 11:00:00 14,1 11,4 15,0 14,2 12,6 8 4 13 7 NE 1014,3 18 0 0,0
18.04.2019 10:00:00 13,0 10,9 12,6 14,3 12,7 6 3 15 8 ESE 1013,8 23 0 0,0
18.04.2019 09:00:00 11,9 10,6 10,2 14,3 12,6 5 3 9 5 ENE 1013,2 24 0 0,0
18.04.2019 08:00:00 11,1 10,2 8,9 14,4 12,6 4 2 9 5 NE 1012,9 24 0 0,0
18.04.2019 07:00:00 10,8 10,0 8,3 14,4 12,6 4 2 8 4 E 1012,2 20 0 0,0
18.04.2019 06:00:00 11,2 10,3 8,7 14,4 12,6 4 2 7 4 NNE 1011,8 28 0 0,0
18.04.2019 05:00:00 12,2 10,3 10,4 14,5 12,6 3 2 13 7 E 1011,9 32 0 0,0
18.04.2019 04:00:00 12,5 10,4 11,0 14,5 12,6 6 3 14 7 E 1011,7 36 0 0,0
18.04.2019 03:00:00 12,6 10,5 10,7 14,5 12,6 9 5 14 8 E 1012,0 36 0 0,0
18.04.2019 02:00:00 12,9 10,8 11,0 14,5 12,6 6 3 15 8 NE 1012,3 37 0 0,0
18.04.2019 01:00:00 13,3 10,7 11,1 14,5 12,6 5 3 9 5 E 1011,9 42 0 0,0
18.04.2019 00:00:00 13,7 10,7 11,5 14,5 12,6 8 4 19 10 E 1011,5 42 0 0,0
17.04.2019 23:00:00 14,3 11,3 11,5 14,5 12,6 9 5 17 9 ENE 1011,0 43 0 0,0
17.04.2019 22:00:00 15,2 11,4 12,5 14,4 12,6 8 4 30 16 ENE 1010,6 47 0 0,0
17.04.2019 21:00:00 16,4 12,0 14,1 14,3 12,6 17 9 34 18 E 1010,0 49 21 0,0
17.04.2019 20:00:00 18,1 12,3 17,7 14,3 12,6 15 8 29 16 E 1010,2 39 33 0,0
17.04.2019 19:00:00 19,3 12,3 20,1 14,2 12,5 13 7 29 15 E 1010,2 36 24 0,0
17.04.2019 18:00:00 20,6 12,6 25,3 14,2 12,6 16 9 29 16 E 1010,1 45 58 0,0
17.04.2019 17:00:00 20,3 12,5 25,0 14,1 12,6 16 9 29 16 ENE 1010,4 48 57 0,0
17.04.2019 16:00:00 18,9 12,6 21,2 14,1 12,5 17 9 29 16 E 1011,0 48 3 0,0
17.04.2019 15:00:00 18,1 11,6 21,8 14,1 12,6 16 8 30 16 E 1011,6 45 0 0,0
17.04.2019 14:00:00 17,0 11,5 18,3 14,1 12,5 11 6 20 11 E 1012,2 46 0 0,0
17.04.2019 13:00:00 15,9 10,6 17,4 14,1 12,5 14 7 27 15 ENE 1012,7 31 0 0,0
17.04.2019 12:00:00 16,1 9,7 18,1 14,1 12,5 13 7 23 13 ENE 1012,8 52 0 0,0
17.04.2019 11:00:00 16,5 9,9 21,6 14,2 12,5 10 5 21 12 E 1012,7 49 37 0,0
17.04.2019 10:00:00 15,3 9,4 16,7 14,2 12,5 7 4 16 8 E 1012,7 58 45 0,0
17.04.2019 09:00:00 12,2 8,5 9,7 14,3 12,5 5 3 18 10 SSE 1013,3 52 54 0,0
17.04.2019 08:00:00 10,5 7,7 3,8 14,4 12,5 11 6 22 12 E 1013,0 36 25 0,0
17.04.2019 07:00:00 9,4 7,5 4,6 14,4 12,5 8 5 14 7 E 1013,3 59 0 0,0
17.04.2019 06:00:00 10,7 7,9 7,9 14,5 12,5 6 3 14 8 ESE 1013,6 60 0 0,0
17.04.2019 05:00:00 11,3 8,2 8,0 14,5 12,5 8 5 14 8 ESE 1014,1 60 0 0,0
17.04.2019 04:00:00 12,0 8,3 9,5 14,5 12,5 10 5 21 11 ESE 1014,9 60 0 0,0
17.04.2019 03:00:00 12,0 8,3 9,9 14,6 12,5 11 6 21 11 E 1015,4 60 0 0,0
17.04.2019 02:00:00 13,0 8,3 10,7 14,6 12,5 14 8 26 14 E 1016,1 60 0 0,0
17.04.2019 01:00:00 13,4 8,2 11,2 14,6 12,5 16 9 30 16 E 1016,5 60 0 0,0
17.04.2019 00:00:00 13,4 8,2 11,1 14,6 12,5 17 9 29 16 E 1017,2 60 0 0,0
16.04.2019 23:00:00 13,7 8,1 10,2 14,5 12,5 10 6 21 11 E 1017,6 60 0 0,0
16.04.2019 22:00:00 13,7 8,5 10,0 14,5 12,5 9 5 14 7 ENE 1017,9 60 0 0,0
16.04.2019 21:00:00 15,2 8,7 11,3 14,4 12,4 9 5 22 12 ENE 1017,6 60 20 0,0
16.04.2019 20:00:00 17,2 8,1 16,3 14,2 12,5 13 7 24 13 ENE 1017,2 51 60 0,0
16.04.2019 19:00:00 18,1 7,8 20,9 14,1 12,5 13 7 25 13 E 1017,4 35 60 0,0
16.04.2019 18:00:00 18,3 8,0 21,3 13,9 12,5 11 6 23 12 NE 1017,9 55 47 0,0
16.04.2019 17:00:00 18,2 8,2 22,4 13,8 12,5 13 7 22 12 NE 1018,1 54 53 0,0
16.04.2019 16:00:00 17,7 7,4 22,2 13,6 12,4 10 6 27 15 NE 1018,7 58 46 0,0
16.04.2019 15:00:00 17,6 9,2 28,2 13,5 12,5 4 2 16 8 NNW 1019,3 20 58 0,0
16.04.2019 14:00:00 16,7 7,1 29,4 13,5 12,5 5 3 16 8 E 1019,8 50 60 0,0
16.04.2019 13:00:00 15,2 8,2 17,8 13,5 12,4 7 4 17 9 NNW 1020,4 20 27 0,0
16.04.2019 12:00:00 14,0 8,0 17,9 13,5 12,5 6 3 20 11 W 1021,0 57 37 0,0
16.04.2019 11:00:00 13,4 9,4 13,6 13,5 12,4 7 4 19 10 W 1021,2 19 21 0,0
16.04.2019 10:00:00 11,5 10,6 11,5 13,6 12,4 11 6 25 13 WSW 1021,3 19 22 0,0
16.04.2019 09:00:00 11,0 9,9 9,7 13,6 12,4 13 7 24 13 WSW 1020,8 26 16 0,0
16.04.2019 08:00:00 10,1 9,3 9,1 13,6 12,4 8 5 19 10 WSW 1020,4 42 0 0,0
16.04.2019 07:00:00 10,7 9,9 10,1 13,6 12,4 15 8 31 17 WSW 1019,7 49 0 0,0
16.04.2019 06:00:00 10,9 10,0 10,1 13,7 12,4 8 4 18 10 W 1018,9 59 0 0,0
16.04.2019 05:00:00 11,1 10,2 10,4 13,7 12,4 15 8 32 17 WSW 1018,7 60 0 0,0
16.04.2019 04:00:00 11,3 10,2 10,5 13,7 12,4 10 5 14 8 WSW 1018,4 60 0 0,0
16.04.2019 03:00:00 11,0 10,2 10,3 13,8 12,5 7 4 16 8 SW 1018,4 55 0 0,4
16.04.2019 02:00:00 11,1 10,2 10,5 13,7 12,4 10 6 21 12 SW 1018,5 9 0 1,3
16.04.2019 01:00:00 11,3 10,5 10,8 13,7 12,4 12 6 29 16 SSW 1018,3 12 0 2,4
16.04.2019 00:00:00 11,8 10,9 11,1 13,7 12,4 18 10 36 19 SW 1017,8 9 0 1,6
15.04.2019 23:00:00 12,6 11,8 12,0 13,6 12,4 26 14 54 29 WSW 1016,7 9 0 2,4
15.04.2019 22:00:00 13,8 13,2 13,4 13,6 12,4 20 11 30 16 WSW 1015,1 9 0 6,7
15.04.2019 21:00:00 14,1 13,3 13,5 13,5 12,4 13 7 53 29 NW 1013,2 40 0 1,2
15.04.2019 20:00:00 14,5 13,2 13,8 13,4 12,4 34 18 82 44 NW 1011,8 5 0 1,0
15.04.2019 19:00:00 19,7 10,4 18,8 13,3 12,4 11 6 29 16 E 1007,2 17 18 0,0
15.04.2019 18:00:00 21,2 12,1 22,0 13,2 12,4 12 7 26 14 NE 1007,3 37 0 0,0
15.04.2019 17:00:00 22,3 12,3 23,4 13,0 12,4 15 8 27 15 ENE 1007,2 40 2 0,0
15.04.2019 16:00:00 22,6 12,8 26,0 12,9 12,4 13 7 26 14 ENE 1007,7 41 6 0,0
15.04.2019 15:00:00 22,4 12,9 27,7 12,9 12,4 15 8 26 14 ENE 1008,1 31 46 0,0
15.04.2019 14:00:00 21,6 11,9 25,2 12,8 12,4 11 6 21 12 E 1008,9 32 21 0,0
15.04.2019 13:00:00 20,9 12,1 24,4 12,8 12,4 11 6 27 15 ENE 1009,4 38 12 0,0
15.04.2019 12:00:00 21,0 10,8 25,3 12,8 12,4 13 7 26 14 E 1010,0 17 21 0,0
15.04.2019 11:00:00 19,8 11,0 22,8 12,9 12,4 9 5 17 9 ESE 1010,7 18 49 0,0
15.04.2019 10:00:00 16,2 9,4 17,7 12,9 12,3 6 4 13 7 ESE 1011,8 22 53 0,0
15.04.2019 09:00:00 12,9 8,0 7,7 12,9 12,4 6 3 14 8 ESE 1012,7 33 26 0,0
15.04.2019 08:00:00 9,5 6,6 5,2 13,0 12,4 4 2 13 7 ESE 1013,5 22 0 0,0
15.04.2019 07:00:00 10,5 6,3 8,0 13,1 12,4 5 3 18 10 ESE 1013,7 24 0 0,0
15.04.2019 06:00:00 11,0 6,3 3,8 13,1 12,4 11 6 26 14 E 1013,9 25 0 0,0
15.04.2019 05:00:00 8,6 6,6 4,0 13,2 12,4 10 5 16 9 E 1015,1 16 0 0,0
15.04.2019 04:00:00 8,5 6,5 4,3 13,2 12,3 8 4 13 7 E 1015,9 17 0 0,0
15.04.2019 03:00:00 9,7 6,4 6,7 13,3 12,4 5 3 11 6 SE 1016,5 16 0 0,0
15.04.2019 02:00:00 9,8 6,5 5,7 13,3 12,4 7 4 11 6 E 1017,4 20 0 0,0
15.04.2019 01:00:00 10,2 6,9 5,3 13,3 12,4 10 5 15 8 ESE 1017,8 23 0 0,0
15.04.2019 00:00:00 10,8 7,1 5,1 13,3 12,4 8 4 13 7 E 1018,0 26 0 0,0
14.04.2019 23:00:00 10,6 7,7 5,5 13,3 12,4 6 3 11 6 ENE 1017,9 30 0 0,0
14.04.2019 22:00:00 11,8 8,5 6,4 13,3 12,4 4 2 10 5 E 1017,6 30 0 0,0
14.04.2019 21:00:00 13,3 8,4 7,2 13,2 12,3 6 3 10 5 N 1017,1 40 0 0,0
14.04.2019 20:00:00 16,2 8,4 14,9 13,2 12,3 6 4 21 11 WNW 1016,8 38 56 0,0
14.04.2019 19:00:00 15,9 8,4 15,9 13,1 12,3 13 7 18 10 WNW 1016,9 32 25 0,0
14.04.2019 18:00:00 16,5 7,7 20,4 13,0 12,3 8 4 16 8 WSW 1017,1 35 36 0,0
14.04.2019 17:00:00 15,3 7,3 16,2 13,0 12,3 8 5 20 11 NNW 1017,7 43 3 0,0
14.04.2019 16:00:00 15,2 7,2 18,5 13,0 12,3 6 3 16 9 NW 1017,5 46 0 0,0
14.04.2019 15:00:00 14,3 6,1 17,5 13,0 12,3 10 5 23 13 N 1017,6 21 0 0,0
14.04.2019 14:00:00 14,4 6,5 17,0 13,0 12,3 15 8 24 13 N 1017,6 15 0 0,0

tt = Température de l'air
td = dewpoint
tt 5cm = Température de l'air 5cm
tt -20cm = Température de l'air -20cm
tt -100cm = Température de l'air -100cm
ff = Vitesse du vent
fx = gusts
dd = Direction du vent
ppp = reduced air pressure
vv = visibility
sd = Ensoleillement
rr = Quantités de précipitations

stations d'obs. à proximité